Etusivu
METAR-TAF:

METAR-TAF

Lentoasemat :

Avenger Field

Sweetwater, Texas, Yhdysvallat

Leveyspiiri: 32-28-02N, Pituuspiiri: 100-27-59W, korkeus merenpinnasta: 725 m

Tämänhetkinen sää

Tämä raportti tehtiin 25 minuuttia sitten, kello 09.30 UTC
Tuuli 9 kn lounaasta
Lämpötila 13°C
Kosteus 51%
Ilmanpaine 1006 hPa
Näkyvyys: 16.1 km
selkeää

METAR: KSWW 150930Z AUTO 22009KT 10SM CLR 13/03 A2972 RMK AO2 T01300025

Aika: 03:55 (09:55 UTC)


TAF: puuttuu

Säähavainnot ja -ennusteet yli 4000 lentoasemalta (METAR- ja TAF-raportit).

Käytössä olevat sääasemat on merkitty karttaan keltaisilla ja punaisilla pisteillä.

Aseta hiiri pisteen päälle nähdäksesi sääaseman nimen.

Klikkaa sitten nähdäksesi säähavainnot ja -ennusteet.

Kartan vaihtaminen: klikkaa mustalla rastilla varustettuja vihreitä pisteitä, niin voit zoomata sisään; viivalla varustettua vihreää pistettä, niin voit zoomata ulos tai vihreitä nuolia, niin pääset viereisille kartoille.


METAR-TAF: